Temp
79 79 78 78 78 79 78 79 79 78 76 76 75 76 75 73 72 71 70 71 72 78 79 79 80 78 79 80 82 81 82 82 82 83 82 81 81 78 74 74 74 73 73 73 73 73 74 74 74 75 75 75 75 76 75 75 75 75 75 74 74 73 73 72 71 71 72 72 73 73 73 75 76 76
78 79 79 79 79 79 79 80 80 78 77 77 76 75 75 74 78 72 71 71 71 75 78 78 80 80 82 82 81 82 82 80 82 83 82 82 83 76 73 73 73 73 72 72 71 71 72 72 72 72 73 73 74 74 74 74 74 74 73 72 72 72 72 70 70 70 71 71 71 72 72 73 74 74
78 78 78 78 78 78 79 79 80 79 78 77 76 76 75 74 77 74 72 71 74 73 76 79 80 79 79 83 82 82 82 81 82 82 82 82 79 76 78 75 73 72 72 72 71 70 70 69 70 71 72 72 72 73 73 72 72 72 71 71 70 70 70 69 69 70 70 70 70 71 71 72 72 73
79 78 78 78 78 78 78 79 78 78 78 78 77 77 76 75 75 75 74 73 74 76 79 79 81 82 80 80 81 82 82 82 79 82 82 82 78 82 84 78 75 73 72 72 71 70 68 67 69 70 71 71 72 72 72 71 71 70 69 69 68 68 68 68 69 69 69 69 69 70 70 70 71 71
78 78 77 78 78 78 78 78 79 79 78 78 77 77 77 77 75 76 75 74 75 77 76 76 79 81 80 81 78 80 82 82 82 81 83 83 83 83 83 84 77 74 72 71 70 69 68 67 68 69 70 71 71 70 69 69 68 68 68 67 66 66 66 66 67 68 67 68 68 68 69 69 70 71
77 78 77 77 78 78 78 78 79 79 79 79 79 78 77 77 77 75 76 74 73 75 78 78 79 79 78 81 79 79 80 81 81 82 82 84 83 83 83 83 84 75 73 71 70 69 68 67 67 68 69 69 68 68 68 67 66 66 66 65 65 65 65 64 65 66 65 66 66 66 67 68 68 69
77 77 77 78 78 78 78 78 78 79 78 78 78 78 78 77 78 76 76 76 75 75 77 75 77 78 78 79 81 81 80 80 80 80 82 83 83 83 83 83 86 77 73 71 70 68 68 67 67 67 66 67 66 66 65 65 64 64 63 63 63 64 63 63 63 64 64 63 64 65 66 66 67 68
77 77 77 78 78 78 77 77 78 78 78 77 77 78 77 76 77 77 76 76 76 75 75 77 78 79 78 79 79 80 80 81 81 81 81 82 82 83 84 83 84 81 73 72 69 69 67 66 66 65 65 64 64 64 64 64 63 62 63 62 62 62 61 61 61 62 62 62 61 63 64 65 65 65
78 77 77 78 78 77 77 77 77 78 77 78 77 77 77 77 77 77 77 76 75 75 75 76 76 76 77 78 78 79 79 80 80 80 80 81 80 80 84 84 85 78 75 75 70 68 68 67 66 65 65 64 64 64 64 63 62 61 60 59 60 61 61 60 60 60 61 61 60 61 62 63 63 64
78 78 78 78 78 78 77 78 78 77 77 77 77 77 77 77 77 76 76 76 75 74 75 75 75 77 78 77 79 79 78 78 78 79 80 80 80 79 81 83 85 87 85 85 83 73 70 67 65 66 65 64 64 63 63 63 62 61 59 58 59 60 59 59 59 59 60 60 59 59 60 61 62 63
78 79 79 78 78 78 78 78 78 78 78 77 77 77 77 77 77 77 77 76 75 75 75 76 76 76 77 76 77 78 77 77 77 77 77 78 79 79 78 79 83 85 84 79 73 74 74 71 71 63 63 64 64 64 63 63 62 61 59 58 59 59 58 59 58 58 58 59 59 59 59 58 60 61
79 79 79 80 79 79 79 79 79 78 78 77 77 78 77 77 76 77 77 76 76 75 75 75 76 76 75 76 77 77 77 78 78 77 75 75 77 77 77 79 79 81 81 82 83 75 73 72 69 67 67 66 65 64 66 66 66 62 60 60 62 61 59 58 58 58 58 58 58 58 59 58 58 59
78 79 79 79 80 79 79 78 78 79 79 78 77 78 77 77 76 76 76 76 75 75 74 74 75 75 75 75 75 76 76 77 77 77 74 75 77 76 77 79 80 80 80 81 82 80 80 78 76 75 74 73 71 69 67 68 67 63 60 60 61 61 60 59 58 58 57 57 57 57 58 58 58 58
78 79 80 80 80 79 80 77 74 73 74 77 80 79 78 77 76 76 76 75 75 75 74 75 75 75 75 77 76 76 77 77 77 77 76 76 77 76 77 78 80 79 81 80 78 78 79 78 75 74 73 73 71 72 71 69 67 63 61 61 61 61 60 59 59 58 57 57 57 57 56 56 57 57
78 78 79 79 80 80 80 80 75 72 72 72 73 75 77 79 78 77 76 76 76 75 75 75 75 74 74 76 78 77 78 78 78 77 76 75 75 75 73 74 78 79 79 78 78 76 77 76 74 73 73 73 72 72 70 63 63 62 62 61 61 61 61 61 60 59 58 58 58 57 56 56 57 57
79 79 79 79 80 80 80 81 80 77 73 70 70 71 71 73 75 76 78 77 76 75 75 75 76 76 76 77 78 78 78 78 77 76 75 75 75 75 74 74 75 79 80 78 77 76 75 75 74 72 72 73 72 71 66 63 61 61 61 61 60 60 60 61 61 60 59 59 59 58 57 57 57 57
78 78 78 78 79 80 80 80 80 79 79 73 69 69 70 71 71 69 69 72 78 80 77 76 76 77 77 77 78 79 79 78 78 76 76 76 75 75 75 75 76 79 79 78 76 76 75 74 73 72 72 73 72 71 66 62 62 61 61 61 60 60 60 60 59 60 60 59 57 56 56 56 56 56
79 78 78 78 78 79 79 80 80 79 79 79 77 75 74 75 76 72 68 68 68 73 78 78 76 79 79 77 79 81 79 78 78 77 77 77 76 75 75 78 77 79 80 77 76 74 74 73 72 72 72 73 72 71 65 62 62 61 60 60 60 59 59 60 59 59 58 58 57 56 55 54 53 55
79 79 79 79 79 79 78 78 79 79 79 78 78 78 78 78 78 78 79 77 77 75 76 78 78 79 80 80 80 81 80 79 79 80 79 79 78 77 78 77 77 78 78 77 76 73 74 72 72 73 72 73 72 72 66 62 62 61 60 60 60 59 59 59 59 58 58 58 57 56 55 54 53 54
79 79 79 78 78 79 78 78 72 76 79 78 78 77 78 78 79 79 78 73 75 80 79 79 80 81 82 76 81 81 81 79 78 78 79 77 75 74 74 74 78 78 79 77 77 74 74 73 74 73 73 72 71 71 72 64 62 61 60 60 60 58 57 58 58 58 58 57 57 56 55 53 52 54
79 79 79 79 79 79 79 75 67 67 76 78 77 77 78 78 80 79 81 72 66 67 67 67 69 68 68 67 66 65 65 73 77 77 76 75 77 74 73 74 76 77 79 79 78 76 75 73 73 72 72 71 71 72 72 71 64 61 60 59 59 57 56 56 57 57 57 57 56 55 55 53 53 56
78 79 79 80 79 79 79 71 66 65 72 77 77 77 77 77 77 78 81 83 79 65 63 64 65 65 66 66 65 65 64 64 71 77 74 79 78 75 75 74 76 76 76 78 78 74 75 72 70 71 70 69 70 72 72 70 67 63 63 60 58 57 57 55 56 56 57 56 56 55 54 53 55 64
79 78 79 78 77 77 76 68 65 63 70 77 77 77 77 76 77 79 81 80 80 79 77 76 74 73 71 71 73 74 69 67 71 76 78 80 77 76 76 75 75 73 77 78 77 75 73 71 71 70 70 69 70 69 70 70 69 69 67 66 66 58 57 56 55 54 55 55 55 55 54 53 55 63
77 78 79 76 67 65 66 64 62 61 63 76 77 78 77 76 76 81 81 80 80 79 79 79 79 79 80 79 78 77 77 75 74 75 77 78 78 76 76 76 75 74 77 77 77 75 72 72 72 68 71 69 69 70 70 70 69 69 67 66 66 62 62 61 60 57 54 54 54 54 53 53 54 61
78 78 78 80 70 62 61 60 59 58 58 66 77 77 77 78 78 78 80 80 81 79 78 78 78 78 78 78 79 78 77 78 77 76 76 77 78 78 77 76 75 76 78 78 71 76 72 70 71 68 66 67 67 67 68 67 68 68 67 65 65 65 65 65 64 65 59 56 54 54 54 53 54 56
78 79 79 78 72 62 60 59 58 56 57 59 73 76 67 67 67 75 78 79 79 79 79 78 78 78 78 78 78 78 78 79 78 78 78 77 78 79 80 78 77 76 77 75 67 75 70 67 71 69 66 65 66 65 66 68 68 67 67 66 65 65 64 65 65 64 64 64 64 57 57 53 55 54
79 79 79 80 74 62 58 57 57 56 56 59 67 63 61 63 65 72 77 77 76 76 77 76 76 76 77 77 77 78 79 80 79 79 79 78 77 77 78 79 80 80 80 74 73 74 73 71 69 70 67 65 67 66 65 66 69 67 68 67 66 65 65 65 64 64 64 63 63 57 56 56 54 54
81 79 80 77 66 59 55 55 56 56 57 64 58 57 60 62 67 72 73 73 74 74 75 74 75 76 77 77 77 78 79 80 79 79 79 78 77 76 77 77 77 79 77 76 74 74 74 72 69 69 69 67 67 66 67 68 66 66 66 67 66 65 65 65 64 64 64 64 63 62 62 62 62 61
82 72 66 64 61 60 57 56 56 57 56 56 57 57 59 66 71 71 72 73 73 73 73 74 75 77 77 78 78 79 79 79 78 76 77 76 76 77 76 76 76 75 76 76 75 74 72 72 71 68 67 68 68 66 66 68 67 67 66 65 67 67 65 64 64 63 63 64 63 62 61 60 60 60
70 66 63 62 61 61 62 65 67 69 69 59 58 59 62 66 70 71 72 72 72 73 74 75 75 77 78 77 78 78 78 76 75 76 75 74 73 73 72 72 72 73 74 74 74 72 71 71 70 68 67 66 68 68 66 66 66 67 65 65 65 67 64 65 64 63 62 62 62 62 62 62 60 59
74 71 69 70 65 67 65 66 67 68 69 68 65 65 66 68 70 72 73 74 74 73 75 75 76 77 78 79 77 75 75 74 75 75 75 75 74 72 72 71 69 69 70 70 70 69 69 69 69 69 68 67 66 67 66 65 67 67 66 65 64 65 66 65 64 63 62 62 62 62 61 61 61 60
77 77 70 67 71 71 71 70 72 73 73 73 71 70 70 70 71 72 73 74 75 75 76 76 76 76 76 75 76 76 75 75 75 75 75 74 72 71 71 70 68 68 68 68 68 67 68 68 68 69 69 68 67 65 63 65 65 66 66 65 64 65 65 64 64 63 61 61 62 61 59 59 59 59
73 74 73 73 72 72 72 72 72 72 72 72 73 73 73 72 73 73 73 72 72 73 73 72 73 74 75 75 76 75 75 74 73 72 72 73 72 71 71 70 68 67 67 66 66 65 65 66 67 67 66 66 66 66 66 66 66 65 65 66 65 65 66 65 63 62 61 61 61 61 60 59 59 59
72 72 72 73 74 73 73 73 72 72 72 72 73 73 69 73 74 73 73 73 74 74 73 73 73 73 74 74 75 74 73 72 72 70 68 71 71 69 69 68 67 67 67 66 65 66 65 64 65 65 66 66 65 65 68 68 68 67 65 65 64 65 65 63 64 61 60 60 59 60 61 61 60 60
71 72 71 73 73 74 74 74 74 74 73 73 73 74 74 73 73 72 72 73 73 72 73 72 73 74 74 74 74 73 73 72 71 70 69 71 69 70 67 66 65 64 63 64 64 65 65 63 64 66 66 67 68 68 65 68 68 67 65 64 64 64 65 64 64 63 61 60 60 59 60 62 62 62
71 72 73 73 73 74 74 74 74 75 75 74 74 73 72 72 72 72 72 71 72 71 71 71 71 72 73 74 74 73 73 72 71 69 68 68 68 67 66 66 64 63 65 66 64 64 64 65 65 66 65 65 64 66 68 64 66 68 66 67 65 63 63 63 62 62 62 62 60 59 59 60 62 63
72 73 73 74 74 74 74 75 75 74 73 73 73 73 72 72 73 73 73 72 72 71 72 72 72 73 73 73 72 71 70 70 70 68 67 66 66 66 65 66 66 65 64 64 65 65 65 65 65 66 66 65 65 65 69 66 60 60 67 66 65 64 65 63 62 63 63 61 61 60 60 60 61 62
73 74 73 74 74 74 73 73 72 72 72 72 72 72 73 73 74 73 74 72 71 71 71 71 71 71 72 72 72 70 69 70 70 70 68 66 65 64 64 65 65 64 63 65 66 66 65 65 63 65 67 67 66 65 66 67 67 64 59 65 66 66 63 63 64 65 64 61 61 61 60 60 60 61
74 74 73 72 71 72 72 72 72 72 72 72 72 72 73 73 73 73 71 70 72 71 71 71 71 71 71 71 70 68 67 68 69 69 68 66 65 65 65 66 65 65 66 66 66 65 64 63 64 64 66 66 66 68 69 68 67 68 59 55 65 66 64 64 65 64 63 63 61 58 58 59 59 56
70 71 72 72 72 73 73 73 73 73 73 73 73 73 73 72 73 72 71 69 69 70 70 70 70 69 71 71 69 70 70 70 70 69 68 65 64 65 66 68 68 67 66 66 65 63 63 63 63 64 66 68 69 68 68 68 67 63 62 57 51 62 67 64 64 65 64 62 59 61 62 61 63 61
69 70 71 72 73 73 73 74 75 74 73 73 74 70 73 73 73 73 72 70 69 69 69 69 69 70 71 71 70 69 68 68 69 69 68 65 64 65 65 64 67 67 65 64 63 64 62 64 67 64 67 67 64 66 66 65 65 67 66 65 52 51 53 58 65 64 64 59 60 62 61 61 58 57
69 70 72 73 73 75 75 74 74 74 73 73 73 73 73 73 72 68 70 68 69 69 68 69 69 69 70 71 70 68 68 68 68 68 66 67 66 65 64 66 67 66 65 65 65 67 69 69 69 68 67 66 64 63 63 64 66 68 68 65 64 54 51 51 53 56 63 62 61 61 61 58 57 58
69 70 70 70 72 72 73 73 73 74 73 73 72 73 72 72 72 70 70 69 69 68 68 69 70 70 71 71 70 68 68 67 67 67 67 67 66 65 65 65 65 64 66 68 69 69 68 67 67 66 66 66 66 66 66 67 67 67 66 66 65 63 60 53 51 51 53 55 57 61 64 64 62 62
70 70 70 71 71 71 72 72 72 73 73 73 71 71 71 71 70 70 70 69 68 68 69 69 69 69 69 69 69 68 68 68 68 68 68 65 65 65 65 65 65 66 66 67 66 64 65 66 67 67 66 65 66 65 65 66 66 67 67 66 64 62 63 62 60 55 54 53 52 53 52 54 57 57
69 70 71 71 71 71 71 72 72 72 72 70 69 70 70 71 69 70 70 69 68 68 67 67 67 68 69 69 68 67 68 65 67 68 67 66 66 65 66 66 65 66 66 65 64 63 64 64 64 65 66 67 67 66 66 66 66 66 65 64 64 64 64 62 61 61 61 62 57 52 53 53 53 54
MSLP
1022.68 1022.80 1022.88 1022.96 1022.96 1022.84 1022.76 1022.76 1022.84 1022.96 1023.08 1023.16 1023.32 1023.44 1023.84 1024.12 1025.12 1025.56 1025.36 1024.64 1024.20 1022.92 1022.60 1022.92 1021.76 1021.16 1021.16 1021.12 1020.76 1020.72 1020.52 1020.28 1020.12 1019.96 1019.88 1019.76 1019.56 1019.32 1019.20 1019.08 1018.92 1018.80 1018.68 1018.56 1018.40 1018.28 1018.16 1018.04 1017.92 1017.88 1017.88 1017.80 1017.64 1017.60 1017.56 1017.48 1017.36 1017.24 1017.16 1017.08 1017.00 1016.88 1016.72 1016.60 1016.40 1016.16 1015.92 1015.72 1015.48 1015.28 1015.04 1014.84 1014.68 1014.60
1022.56 1022.68 1022.76 1022.80 1022.88 1022.72 1022.72 1022.76 1022.72 1022.80 1022.92 1023.08 1023.20 1023.32 1023.40 1023.48 1024.36 1024.84 1025.48 1025.04 1023.84 1023.48 1022.60 1022.48 1022.40 1021.36 1021.24 1021.00 1020.84 1020.64 1020.52 1020.24 1020.12 1019.96 1019.80 1019.68 1019.48 1019.28 1019.12 1019.00 1018.88 1018.76 1018.64 1018.52 1018.36 1018.24 1018.08 1018.04 1018.04 1017.92 1017.72 1017.64 1017.64 1017.60 1017.48 1017.44 1017.36 1017.32 1017.24 1017.16 1017.04 1016.92 1016.76 1016.60 1016.40 1016.12 1015.88 1015.64 1015.40 1015.16 1014.96 1014.76 1014.60 1014.48
1022.48 1022.64 1022.76 1022.72 1022.80 1022.64 1022.72 1022.64 1022.64 1022.64 1022.76 1022.92 1023.04 1023.20 1023.32 1023.40 1023.56 1024.16 1024.60 1025.36 1023.72 1023.36 1023.32 1022.40 1021.88 1021.96 1021.40 1021.08 1020.96 1020.64 1020.44 1020.28 1020.12 1019.96 1019.76 1019.56 1019.40 1019.24 1019.00 1018.92 1018.80 1018.72 1018.44 1018.28 1018.20 1018.12 1018.12 1018.12 1017.88 1017.76 1017.72 1017.72 1017.64 1017.64 1017.60 1017.60 1017.52 1017.44 1017.32 1017.24 1017.12 1016.96 1016.80 1016.60 1016.36 1016.12 1015.88 1015.64 1015.40 1015.16 1014.92 1014.72 1014.56 1014.44
1022.40 1022.60 1022.72 1022.68 1022.68 1022.60 1022.68 1022.68 1022.64 1022.64 1022.64 1022.76 1022.96 1023.04 1023.20 1023.32 1023.48 1023.64 1024.16 1024.72 1024.32 1022.92 1022.88 1022.44 1021.88 1021.60 1021.56 1021.12 1021.08 1020.76 1020.48 1020.12 1020.04 1019.88 1019.68 1019.48 1019.40 1019.16 1018.92 1018.68 1018.52 1018.36 1018.32 1018.28 1018.24 1018.24 1018.24 1018.00 1017.92 1017.92 1017.84 1017.80 1017.84 1017.84 1017.84 1017.80 1017.68 1017.56 1017.44 1017.36 1017.20 1017.04 1016.84 1016.60 1016.36 1016.16 1015.92 1015.68 1015.44 1015.16 1014.88 1014.64 1014.44 1014.32
1022.32 1022.48 1022.64 1022.60 1022.52 1022.48 1022.68 1022.68 1022.68 1022.68 1022.64 1022.64 1022.76 1022.88 1023.00 1023.16 1023.28 1023.48 1023.88 1024.32 1024.00 1022.80 1022.20 1022.28 1022.08 1021.48 1021.40 1021.32 1020.92 1020.96 1020.64 1020.36 1020.00 1019.72 1019.52 1019.40 1019.36 1019.12 1018.88 1018.60 1018.44 1018.40 1018.36 1018.36 1018.44 1018.44 1018.24 1018.20 1018.12 1018.04 1018.00 1018.08 1018.08 1018.08 1018.04 1017.96 1017.84 1017.76 1017.60 1017.40 1017.20 1017.04 1016.88 1016.68 1016.44 1016.20 1016.00 1015.80 1015.52 1015.24 1014.96 1014.64 1014.40 1014.24
1022.24 1022.32 1022.52 1022.48 1022.44 1022.40 1022.60 1022.56 1022.60 1022.60 1022.64 1022.68 1022.76 1022.80 1022.88 1023.04 1023.04 1023.04 1023.52 1023.68 1023.92 1023.56 1022.32 1022.28 1021.72 1021.68 1021.24 1021.60 1020.76 1021.08 1020.88 1020.52 1020.20 1020.08 1019.76 1019.28 1019.16 1019.16 1018.88 1018.72 1018.56 1018.48 1018.44 1018.48 1018.60 1018.48 1018.40 1018.36 1018.28 1018.28 1018.32 1018.36 1018.32 1018.24 1018.20 1018.12 1018.00 1017.84 1017.64 1017.48 1017.36 1017.16 1017.00 1016.80 1016.60 1016.36 1016.12 1015.88 1015.60 1015.36 1015.04 1014.76 1014.48 1014.28
1022.08 1022.28 1022.36 1022.32 1022.28 1022.32 1022.48 1022.44 1022.40 1022.36 1022.48 1022.52 1022.68 1022.72 1022.68 1022.84 1022.80 1022.80 1022.88 1023.32 1023.64 1023.52 1022.92 1022.20 1022.16 1021.80 1021.48 1021.56 1021.12 1020.68 1020.56 1020.40 1020.24 1020.28 1019.96 1019.68 1019.28 1019.04 1018.92 1018.88 1018.68 1018.56 1018.56 1018.64 1018.68 1018.60 1018.56 1018.52 1018.52 1018.56 1018.56 1018.52 1018.48 1018.44 1018.36 1018.28 1018.12 1017.96 1017.84 1017.72 1017.52 1017.36 1017.16 1017.00 1016.80 1016.52 1016.28 1016.00 1015.76 1015.48 1015.20 1014.88 1014.60 1014.36
1022.00 1022.08 1022.20 1022.12 1022.16 1022.24 1022.44 1022.32 1022.28 1022.20 1022.24 1022.36 1022.44 1022.52 1022.44 1022.52 1022.48 1022.48 1022.64 1022.68 1023.12 1023.12 1023.28 1022.24 1022.24 1021.72 1021.76 1021.28 1020.84 1020.60 1020.36 1020.36 1020.32 1020.20 1019.96 1019.56 1019.48 1019.28 1019.00 1018.96 1018.88 1018.64 1018.64 1018.72 1018.76 1018.76 1018.76 1018.72 1018.72 1018.76 1018.76 1018.72 1018.68 1018.60 1018.48 1018.36 1018.24 1018.12 1018.04 1017.88 1017.68 1017.52 1017.36 1017.16 1016.96 1016.68 1016.40 1016.12 1015.92 1015.64 1015.32 1015.04 1014.76 1014.48
1021.68 1021.80 1021.88 1021.76 1021.88 1021.96 1022.24 1022.16 1022.16 1022.08 1022.16 1022.12 1022.24 1022.32 1022.24 1022.28 1022.20 1022.28 1022.36 1022.48 1022.60 1022.92 1023.08 1022.52 1021.76 1021.60 1021.52 1021.16 1020.88 1020.60 1020.80 1020.48 1020.32 1020.12 1020.16 1020.04 1019.76 1019.52 1019.16 1019.00 1018.76 1018.68 1018.64 1018.68 1018.84 1018.88 1018.92 1018.92 1018.96 1018.96 1018.96 1018.92 1018.88 1018.76 1018.64 1018.56 1018.44 1018.32 1018.20 1018.00 1017.84 1017.68 1017.52 1017.32 1017.08 1016.80 1016.52 1016.24 1016.00 1015.76 1015.44 1015.16 1014.88 1014.60
1021.28 1021.44 1021.44 1021.40 1021.52 1021.68 1021.92 1021.84 1021.76 1021.80 1021.92 1021.88 1022.00 1022.08 1022.00 1022.00 1022.04 1022.16 1022.16 1022.24 1022.40 1022.60 1022.60 1022.56 1022.24 1021.60 1021.72 1021.40 1021.04 1020.68 1020.68 1020.92 1020.84 1020.56 1020.24 1020.00 1019.80 1019.80 1019.64 1019.28 1018.96 1018.72 1018.72 1018.72 1018.76 1018.92 1019.04 1019.16 1019.16 1019.16 1019.12 1019.08 1019.04 1018.96 1018.88 1018.76 1018.64 1018.48 1018.32 1018.16 1018.00 1017.84 1017.68 1017.48 1017.20 1016.92 1016.64 1016.36 1016.08 1015.84 1015.60 1015.32 1015.04 1014.76
1020.88 1020.92 1021.00 1021.04 1021.12 1021.24 1021.28 1021.40 1021.44 1021.48 1021.60 1021.68 1021.72 1021.64 1021.68 1021.68 1021.88 1022.00 1021.96 1022.04 1022.24 1022.32 1022.40 1022.24 1022.00 1021.88 1021.40 1021.44 1021.48 1020.72 1020.60 1020.68 1020.76 1021.04 1020.88 1020.72 1020.12 1019.96 1019.96 1019.88 1019.20 1018.96 1019.00 1018.88 1018.88 1018.88 1019.04 1019.24 1019.28 1019.40 1019.32 1019.28 1019.24 1019.12 1019.04 1018.92 1018.84 1018.68 1018.52 1018.36 1018.16 1017.96 1017.76 1017.56 1017.28 1017.04 1016.76 1016.48 1016.16 1015.92 1015.68 1015.44 1015.20 1014.92
1020.48 1020.52 1020.52 1020.56 1020.60 1020.68 1020.72 1020.84 1020.88 1021.04 1021.24 1021.28 1021.44 1021.24 1021.36 1021.52 1021.72 1021.88 1021.84 1021.96 1022.08 1022.20 1022.24 1022.28 1022.04 1021.76 1021.72 1021.40 1021.12 1020.84 1020.80 1020.92 1020.80 1020.68 1021.08 1021.32 1020.88 1020.56 1020.12 1019.84 1019.92 1019.48 1019.36 1019.32 1019.08 1019.04 1019.16 1019.32 1019.44 1019.48 1019.44 1019.44 1019.36 1019.28 1019.16 1019.08 1019.00 1018.88 1018.72 1018.52 1018.24 1018.04 1017.84 1017.60 1017.36 1017.12 1016.84 1016.52 1016.24 1015.96 1015.72 1015.48 1015.24 1015.04
1020.16 1020.16 1020.12 1020.12 1020.12 1020.16 1020.24 1020.28 1020.32 1020.36 1020.48 1020.88 1021.20 1021.00 1021.08 1021.32 1021.52 1021.64 1021.76 1021.84 1021.96 1022.00 1022.12 1022.08 1021.80 1021.84 1021.76 1021.48 1021.48 1021.40 1021.32 1021.36 1021.36 1020.80 1020.92 1021.04 1020.64 1020.56 1020.44 1019.80 1019.40 1019.52 1019.68 1019.48 1019.32 1019.32 1019.20 1019.44 1019.56 1019.56 1019.56 1019.52 1019.44 1019.40 1019.32 1019.16 1019.08 1019.08 1018.88 1018.64 1018.36 1018.12 1017.92 1017.64 1017.40 1017.12 1016.84 1016.56 1016.28 1016.04 1015.76 1015.52 1015.28 1015.04
1019.88 1019.76 1019.76 1019.68 1019.72 1019.84 1019.88 1019.96 1020.00 1020.04 1020.16 1020.20 1020.32 1020.44 1020.72 1021.00 1021.24 1021.44 1021.60 1021.72 1021.72 1021.88 1022.08 1021.96 1021.84 1021.92 1021.76 1021.40 1021.28 1021.40 1020.96 1020.68 1020.60 1020.76 1020.76 1021.08 1020.68 1020.52 1020.40 1019.96 1019.60 1019.36 1019.48 1019.72 1019.88 1019.60 1019.20 1019.44 1019.72 1019.68 1019.80 1019.64 1019.56 1019.44 1019.32 1019.36 1019.32 1019.20 1019.00 1018.76 1018.52 1018.24 1017.96 1017.68 1017.40 1017.12 1016.84 1016.56 1016.32 1016.12 1015.84 1015.56 1015.28 1015.08
1019.60 1019.52 1019.44 1019.44 1019.44 1019.48 1019.52 1019.48 1019.52 1019.68 1019.80 1019.88 1019.96 1019.96 1020.04 1020.16 1020.56 1021.04 1021.32 1021.32 1021.32 1021.60 1021.72 1021.48 1021.60 1021.68 1021.60 1021.08 1020.80 1020.88 1020.64 1020.48 1020.56 1020.60 1020.64 1020.80 1020.80 1021.08 1021.40 1021.32 1019.96 1019.12 1019.44 1019.80 1019.96 1019.88 1019.36 1019.36 1019.88 1019.84 1019.76 1019.72 1019.64 1019.48 1019.52 1019.52 1019.40 1019.28 1019.08 1018.88 1018.64 1018.36 1018.04 1017.72 1017.44 1017.12 1016.84 1016.56 1016.32 1016.12 1015.88 1015.60 1015.32 1015.04
1019.12 1019.20 1019.24 1019.20 1019.12 1019.08 1019.04 1019.04 1019.16 1019.24 1019.32 1019.44 1019.56 1019.68 1019.76 1019.88 1019.84 1019.84 1020.24 1020.68 1021.00 1021.12 1021.32 1021.32 1021.16 1021.16 1021.08 1020.72 1020.48 1020.48 1020.40 1020.32 1020.28 1020.28 1020.40 1020.60 1020.76 1021.00 1021.16 1021.08 1021.00 1019.36 1018.88 1019.68 1019.96 1019.96 1019.48 1019.36 1019.68 1019.88 1019.80 1019.64 1019.60 1019.60 1019.56 1019.48 1019.36 1019.24 1019.12 1018.96 1018.76 1018.48 1018.12 1017.80 1017.48 1017.20 1016.88 1016.56 1016.28 1016.12 1015.88 1015.60 1015.32 1015.08
1018.68 1018.80 1018.92 1018.92 1018.76 1018.60 1018.56 1018.68 1018.76 1018.88 1018.96 1019.00 1019.16 1019.28 1019.44 1019.52 1019.52 1019.64 1019.64 1019.56 1019.72 1019.84 1020.40 1020.64 1020.56 1020.40 1020.24 1020.36 1019.96 1019.64 1019.64 1019.48 1020.04 1020.04 1020.28 1020.24 1020.36 1020.40 1020.68 1020.48 1020.12 1019.24 1018.72 1019.44 1019.88 1020.00 1019.56 1019.44 1019.72 1019.88 1019.68 1019.52 1019.52 1019.52 1019.52 1019.44 1019.28 1019.16 1019.08 1019.00 1018.84 1018.60 1018.24 1017.88 1017.60 1017.28 1016.96 1016.60 1016.32 1016.16 1015.96 1015.68 1015.40 1015.12
1018.12 1018.24 1018.40 1018.48 1018.48 1018.20 1018.24 1018.28 1018.36 1018.44 1018.60 1018.68 1018.88 1019.08 1019.20 1019.20 1019.16 1019.24 1019.28 1019.28 1019.28 1019.32 1019.52 1019.68 1019.96 1019.24 1019.20 1019.56 1019.08 1018.72 1018.80 1019.40 1019.72 1019.80 1019.92 1019.72 1019.96 1020.08 1020.04 1019.44 1019.32 1018.72 1018.52 1019.44 1019.68 1019.96 1019.60 1019.40 1019.56 1019.80 1019.60 1019.40 1019.48 1019.44 1019.44 1019.32 1019.20 1019.08 1019.04 1018.96 1018.84 1018.64 1018.36 1018.00 1017.68 1017.36 1017.04 1016.72 1016.44 1016.28 1016.08 1015.80 1015.52 1015.24
1017.44 1017.48 1017.56 1017.68 1017.80 1017.76 1017.92 1017.84 1017.88 1018.08 1018.20 1018.40 1018.60 1018.72 1018.80 1018.76 1018.72 1018.68 1018.72 1018.76 1018.76 1018.88 1018.88 1018.88 1018.72 1018.44 1018.32 1018.40 1018.28 1018.16 1018.24 1018.52 1018.60 1018.72 1018.96 1019.00 1019.12 1019.16 1018.96 1019.00 1018.80 1018.68 1018.28 1018.68 1019.32 1020.20 1019.32 1019.24 1019.48 1019.52 1019.40 1019.32 1019.32 1019.16 1019.20 1019.12 1019.00 1018.96 1018.96 1018.88 1018.80 1018.64 1018.40 1018.04 1017.72 1017.48 1017.16 1016.84 1016.56 1016.40 1016.20 1015.92 1015.60 1015.32
1016.80 1016.80 1016.92 1017.16 1017.32 1017.32 1017.40 1017.28 1017.36 1017.48 1017.64 1018.08 1018.36 1018.56 1018.48 1018.44 1018.32 1018.20 1017.72 1017.60 1017.64 1017.72 1017.84 1017.96 1017.96 1017.76 1017.60 1017.60 1017.68 1017.64 1017.76 1017.96 1018.12 1018.32 1018.40 1018.56 1018.92 1019.36 1019.64 1019.72 1018.96 1018.96 1018.20 1018.24 1018.84 1019.48 1019.20 1019.00 1019.20 1019.28 1019.08 1019.12 1019.20 1019.00 1018.88 1018.84 1018.80 1018.80 1018.80 1018.76 1018.68 1018.60 1018.40 1018.08 1017.80 1017.56 1017.28 1016.96 1016.68 1016.48 1016.24 1016.00 1015.68 1015.36
1016.28 1016.28 1016.32 1016.56 1016.72 1016.80 1016.80 1016.64 1016.88 1017.12 1017.40 1017.84 1018.08 1018.20 1018.28 1018.16 1018.08 1017.84 1017.28 1017.16 1017.24 1017.28 1017.36 1017.40 1017.36 1017.28 1017.28 1017.28 1017.32 1017.40 1017.52 1017.76 1017.88 1018.32 1018.88 1019.04 1018.80 1019.52 1019.88 1019.52 1019.24 1018.84 1018.24 1018.08 1018.16 1018.76 1019.12 1018.88 1018.96 1019.08 1018.96 1019.00 1018.96 1018.80 1018.64 1018.56 1018.56 1018.64 1018.64 1018.64 1018.56 1018.52 1018.36 1018.08 1017.84 1017.60 1017.36 1017.04 1016.80 1016.56 1016.32 1016.08 1015.76 1015.40
1015.84 1015.72 1015.72 1015.88 1016.12 1016.24 1016.12 1016.04 1016.40 1016.76 1017.20 1017.60 1017.72 1017.88 1018.04 1018.12 1018.00 1017.52 1016.88 1016.76 1016.80 1016.84 1016.96 1017.00 1017.00 1017.00 1017.08 1017.04 1017.04 1017.12 1017.24 1017.56 1017.72 1018.16 1018.88 1018.16 1018.28 1019.00 1019.12 1019.44 1018.88 1018.48 1018.24 1017.88 1017.56 1018.60 1018.60 1018.60 1018.80 1018.88 1018.84 1019.00 1018.76 1018.56 1018.44 1018.44 1018.48 1018.48 1018.52 1018.52 1018.52 1018.44 1018.28 1018.12 1017.88 1017.68 1017.44 1017.16 1016.88 1016.68 1016.48 1016.24 1015.88 1015.40
1015.40 1015.36 1015.32 1015.40 1015.44 1015.52 1015.44 1015.64 1015.96 1016.36 1016.76 1017.08 1017.24 1017.36 1017.60 1017.76 1017.64 1016.88 1016.44 1016.64 1016.84 1016.84 1016.92 1016.84 1016.84 1016.88 1016.72 1016.72 1016.76 1016.60 1016.76 1017.12 1017.24 1017.24 1017.28 1017.28 1017.96 1018.48 1018.44 1018.52 1018.64 1018.88 1018.04 1017.12 1016.92 1018.24 1018.32 1018.44 1018.60 1018.72 1018.96 1019.00 1018.52 1018.44 1018.36 1018.40 1018.44 1018.44 1018.48 1018.48 1018.48 1018.44 1018.28 1018.08 1017.92 1017.76 1017.52 1017.32 1017.04 1016.84 1016.68 1016.48 1016.12 1015.76
1015.20 1015.08 1015.04 1014.96 1015.04 1015.08 1015.16 1015.28 1015.56 1015.96 1016.24 1016.44 1016.56 1016.72 1017.08 1017.20 1017.04 1015.84 1016.00 1016.08 1016.20 1016.28 1016.32 1016.28 1016.20 1016.24 1016.08 1016.16 1016.24 1016.32 1016.44 1016.56 1016.64 1016.64 1016.68 1016.76 1017.04 1017.60 1017.76 1017.88 1018.16 1018.44 1017.68 1016.76 1016.56 1017.48 1017.84 1018.00 1018.36 1018.60 1018.60 1018.88 1018.84 1018.52 1018.36 1018.40 1018.44 1018.48 1018.56 1018.60 1018.60 1018.56 1018.32 1018.00 1017.76 1017.72 1017.60 1017.44 1017.20 1017.04 1016.92 1016.76 1016.56 1016.20
1014.84 1014.84 1014.64 1014.40 1014.36 1014.64 1014.80 1014.96 1015.16 1015.52 1015.80 1015.80 1015.92 1016.08 1016.24 1015.96 1015.40 1015.24 1015.76 1015.72 1015.68 1015.84 1015.88 1015.92 1015.92 1015.92 1015.92 1015.92 1015.96 1016.08 1016.12 1016.12 1016.08 1016.16 1016.16 1016.16 1016.24 1016.64 1017.20 1017.52 1017.68 1017.56 1016.84 1016.36 1016.44 1016.96 1017.72 1018.00 1018.20 1018.56 1018.80 1018.84 1018.80 1018.84 1018.56 1018.60 1018.52 1018.60 1018.64 1018.72 1018.80 1018.68 1018.44 1018.16 1017.84 1017.56 1017.48 1017.44 1017.36 1017.24 1017.12 1017.08 1016.96 1016.80
1014.24 1014.12 1014.00 1013.96 1013.88 1014.12 1014.36 1014.52 1014.72 1015.08 1015.36 1015.44 1015.52 1015.32 1015.16 1015.00 1015.16 1015.36 1015.20 1015.28 1015.48 1015.60 1015.68 1015.72 1015.84 1015.84 1015.88 1015.84 1015.80 1015.80 1015.76 1015.72 1015.68 1015.64 1015.68 1015.72 1015.68 1015.68 1015.80 1016.28 1016.84 1017.24 1016.80 1016.12 1016.32 1016.64 1017.24 1017.88 1017.68 1018.12 1018.56 1018.76 1018.88 1019.08 1018.84 1018.60 1018.48 1018.60 1018.68 1018.76 1018.88 1018.84 1018.64 1018.36 1018.08 1017.84 1017.56 1017.44 1017.32 1017.40 1017.36 1017.32 1017.24 1017.12
1013.44 1013.28 1013.28 1013.20 1013.36 1013.64 1013.80 1014.04 1014.20 1014.56 1014.84 1015.20 1015.12 1014.76 1014.80 1014.88 1014.88 1015.00 1015.20 1015.28 1015.48 1015.60 1015.68 1015.80 1015.92 1015.72 1015.64 1015.68 1015.60 1015.52 1015.44 1015.24 1015.12 1015.16 1015.12 1015.12 1015.24 1015.32 1015.28 1015.24 1015.32 1015.60 1015.56 1015.84 1016.00 1016.24 1016.60 1017.04 1017.32 1017.56 1018.00 1018.48 1018.56 1018.92 1019.08 1018.92 1018.56 1018.56 1018.56 1018.68 1018.80 1018.88 1018.76 1018.52 1018.32 1018.12 1017.96 1017.72 1017.48 1017.44 1017.32 1017.32 1017.32 1017.24
1012.60 1012.76 1012.72 1012.76 1012.88 1013.12 1013.32 1013.52 1013.72 1014.00 1014.44 1014.56 1014.44 1014.48 1014.52 1014.60 1014.72 1015.08 1015.20 1015.28 1015.36 1015.52 1015.68 1015.84 1015.80 1015.60 1015.28 1015.24 1015.24 1015.08 1014.80 1014.68 1014.56 1014.56 1014.60 1014.72 1014.84 1015.04 1015.16 1015.20 1015.32 1015.28 1015.52 1015.76 1015.92 1016.08 1016.36 1016.84 1017.32 1017.44 1017.60 1018.08 1018.48 1018.68 1018.60 1018.48 1018.52 1018.56 1018.68 1018.52 1018.68 1018.84 1018.84 1018.76 1018.52 1018.32 1018.12 1018.00 1017.88 1017.68 1017.48 1017.32 1017.24 1017.20
1011.68 1011.80 1011.92 1012.20 1012.44 1012.60 1012.84 1013.04 1013.28 1013.72 1014.08 1014.08 1014.08 1014.16 1014.16 1014.36 1014.80 1014.92 1015.00 1014.96 1015.16 1015.56 1015.60 1015.48 1015.32 1015.08 1014.88 1014.68 1014.40 1014.16 1014.08 1014.08 1014.20 1014.48 1014.56 1014.60 1014.76 1014.88 1015.12 1015.36 1015.48 1015.60 1015.72 1015.76 1015.96 1016.16 1016.44 1016.76 1017.12 1017.64 1018.04 1018.24 1018.48 1018.64 1018.72 1018.64 1018.60 1018.52 1018.64 1018.76 1018.60 1018.68 1018.84 1018.80 1018.64 1018.52 1018.32 1018.12 1018.08 1018.00 1018.00 1017.88 1017.68 1017.52
1011.04 1011.32 1011.56 1011.72 1011.88 1012.16 1012.44 1012.96 1013.32 1013.36 1013.28 1013.40 1013.44 1013.60 1014.00 1014.44 1014.40 1014.48 1014.60 1014.76 1015.08 1015.12 1014.92 1014.92 1014.92 1014.52 1014.24 1014.24 1014.00 1013.92 1014.00 1014.28 1014.44 1014.40 1014.64 1014.88 1015.16 1015.32 1015.64 1015.96 1016.12 1016.04 1016.04 1016.12 1016.24 1016.40 1016.56 1016.80 1017.08 1017.52 1018.00 1018.40 1018.52 1018.68 1018.80 1018.88 1018.76 1018.56 1018.68 1018.80 1018.72 1018.36 1018.64 1018.68 1018.64 1018.60 1018.52 1018.40 1018.28 1018.20 1018.16 1018.12 1018.08 1017.96
1010.96 1011.24 1011.52 1011.64 1011.80 1011.92 1012.08 1012.20 1012.24 1012.40 1012.52 1013.00 1013.44 1013.68 1013.72 1013.76 1013.80 1013.80 1013.96 1014.00 1014.20 1014.24 1014.28 1014.24 1014.08 1013.88 1013.76 1013.72 1014.04 1014.32 1014.40 1014.44 1014.20 1014.08 1014.32 1014.68 1014.96 1015.36 1015.64 1015.96 1016.48 1016.68 1016.64 1016.56 1016.60 1016.68 1016.76 1016.88 1017.04 1017.24 1017.84 1018.28 1018.52 1018.52 1018.68 1018.88 1018.88 1018.80 1018.76 1018.88 1018.96 1018.92 1018.52 1018.48 1018.52 1018.64 1018.68 1018.60 1018.52 1018.44 1018.40 1018.28 1018.20 1018.12
1010.80 1011.16 1011.36 1011.64 1011.84 1012.00 1012.20 1012.36 1012.44 1012.36 1012.36 1012.40 1012.56 1012.84 1013.00 1013.08 1013.04 1013.00 1012.92 1013.08 1013.28 1013.36 1013.44 1013.64 1013.68 1013.80 1013.84 1014.12 1014.04 1014.04 1014.20 1014.08 1013.88 1013.80 1014.08 1014.44 1014.96 1015.36 1015.76 1016.32 1016.80 1016.88 1017.04 1016.96 1016.92 1016.84 1016.84 1017.00 1017.08 1017.24 1017.48 1017.72 1017.96 1018.28 1018.56 1018.64 1018.72 1018.68 1018.68 1018.76 1018.88 1018.76 1018.68 1018.56 1018.48 1018.52 1018.72 1018.76 1018.56 1018.56 1018.68 1018.60 1018.48 1018.40
1010.92 1011.24 1011.48 1011.68 1011.80 1011.92 1012.00 1012.08 1012.12 1012.08 1012.20 1012.28 1012.20 1012.28 1012.44 1012.52 1012.56 1012.60 1012.80 1013.04 1012.96 1012.88 1013.28 1013.52 1013.48 1013.44 1013.48 1013.52 1013.48 1013.68 1013.84 1013.76 1013.60 1013.60 1014.00 1014.28 1014.80 1015.36 1015.60 1016.08 1016.48 1016.88 1017.08 1017.20 1017.08 1017.00 1017.08 1017.12 1017.08 1017.24 1017.56 1017.72 1017.64 1017.64 1017.84 1018.12 1018.08 1018.12 1018.20 1018.28 1018.52 1018.52 1018.40 1018.44 1018.44 1018.52 1018.64 1018.56 1018.60 1018.56 1018.56 1018.64 1018.56 1018.48
1010.72 1010.96 1011.20 1011.20 1011.32 1011.44 1011.52 1011.56 1011.64 1011.72 1011.84 1012.00 1012.12 1012.00 1011.92 1011.96 1012.00 1012.00 1012.04 1012.12 1012.12 1012.36 1012.72 1012.76 1012.96 1013.04 1013.04 1013.16 1013.12 1013.36 1013.44 1013.40 1013.44 1013.56 1013.92 1014.40 1014.64 1015.20 1015.72 1016.04 1016.36 1016.32 1016.48 1016.80 1017.08 1017.28 1017.36 1017.28 1017.20 1017.40 1017.52 1017.60 1017.56 1017.44 1017.32 1017.52 1017.52 1017.52 1017.64 1017.84 1018.08 1018.16 1018.12 1018.20 1018.20 1018.40 1018.60 1018.76 1018.84 1018.48 1018.20 1018.24 1018.36 1018.36
1010.60 1010.64 1010.84 1010.72 1010.72 1010.68 1010.76 1010.96 1011.04 1011.12 1011.44 1011.60 1011.68 1011.52 1011.44 1011.48 1011.48 1011.52 1011.60 1011.56 1011.68 1012.00 1012.24 1012.36 1012.48 1012.60 1012.84 1012.88 1012.88 1013.08 1013.12 1013.24 1013.40 1013.64 1013.76 1013.88 1014.32 1014.60 1015.04 1015.48 1015.76 1015.96 1015.84 1015.84 1016.28 1016.80 1017.16 1017.24 1017.28 1017.52 1017.64 1017.60 1017.52 1017.24 1017.08 1017.08 1017.28 1017.28 1017.40 1017.52 1017.56 1017.72 1017.72 1017.80 1017.88 1018.00 1018.24 1018.48 1018.56 1018.44 1018.20 1017.96 1017.92 1018.04
1009.76 1009.68 1009.92 1010.08 1010.08 1010.12 1010.40 1010.40 1010.44 1010.60 1010.84 1011.00 1011.08 1011.04 1011.20 1011.20 1011.08 1011.24 1011.16 1010.84 1011.20 1011.48 1011.80 1012.04 1012.28 1012.48 1012.60 1012.64 1012.68 1012.84 1012.96 1013.16 1013.32 1013.40 1013.64 1013.76 1014.04 1014.28 1014.48 1014.56 1014.88 1015.48 1015.64 1015.72 1015.96 1016.32 1016.72 1016.92 1017.04 1017.28 1017.68 1017.88 1018.08 1017.88 1017.08 1016.88 1016.84 1016.76 1017.20 1017.20 1017.16 1017.32 1017.36 1017.52 1017.64 1017.72 1017.80 1017.92 1018.20 1018.20 1018.12 1017.92 1017.72 1017.64
1009.08 1009.12 1009.24 1009.28 1009.32 1009.48 1009.68 1009.68 1009.80 1009.92 1010.16 1010.36 1010.44 1010.52 1010.60 1010.56 1010.36 1010.36 1010.12 1010.36 1010.92 1011.12 1011.28 1011.56 1011.88 1012.04 1012.24 1012.40 1012.52 1012.60 1012.72 1013.04 1013.32 1013.52 1013.88 1014.16 1014.36 1014.52 1014.72 1014.84 1014.92 1015.12 1015.52 1015.68 1015.88 1016.28 1016.60 1016.80 1016.84 1016.88 1017.20 1017.68 1017.84 1017.80 1017.16 1016.92 1016.96 1016.76 1016.76 1016.96 1017.00 1016.96 1017.00 1017.16 1017.28 1017.28 1017.40 1017.60 1017.64 1017.76 1017.76 1017.76 1017.56 1017.40
1008.24 1008.20 1008.56 1008.60 1008.60 1008.64 1008.72 1008.84 1009.04 1009.36 1009.56 1009.60 1009.72 1009.84 1009.84 1009.64 1009.64 1009.84 1009.96 1010.52 1010.72 1010.84 1011.00 1011.20 1011.24 1011.52 1011.76 1012.00 1012.28 1012.40 1012.56 1012.76 1013.00 1013.44 1013.76 1014.04 1014.48 1014.84 1014.72 1014.32 1014.72 1015.12 1015.32 1015.64 1015.84 1016.00 1016.16 1016.32 1016.56 1016.64 1016.92 1017.28 1017.52 1017.48 1017.28 1016.76 1016.68 1016.56 1016.44 1016.48 1016.56 1016.52 1016.72 1016.84 1016.96 1016.96 1017.04 1017.28 1017.24 1017.36 1017.52 1017.36 1017.08 1017.04
1007.60 1007.60 1007.80 1007.92 1007.96 1007.96 1008.12 1008.12 1008.28 1008.48 1008.52 1008.72 1009.00 1009.12 1009.12 1009.20 1009.48 1009.72 1009.96 1010.08 1010.16 1010.32 1010.44 1010.64 1010.80 1011.00 1011.28 1011.44 1011.60 1011.96 1012.40 1012.64 1012.80 1012.92 1013.16 1013.40 1013.72 1014.12 1014.00 1013.88 1014.56 1014.96 1015.36 1015.56 1015.68 1015.88 1016.08 1016.28 1016.52 1016.80 1016.88 1017.08 1017.16 1016.52 1016.28 1016.56 1016.44 1016.04 1016.28 1016.24 1016.04 1016.28 1016.44 1016.48 1016.60 1016.72 1016.84 1016.84 1016.96 1017.32 1017.16 1016.92 1016.84 1016.88
1007.08 1007.04 1007.04 1007.16 1007.28 1007.32 1007.36 1007.40 1007.60 1007.64 1007.88 1007.96 1008.12 1008.20 1008.48 1008.76 1009.00 1009.24 1009.40 1009.56 1009.72 1009.80 1009.96 1010.12 1010.28 1010.60 1010.84 1011.00 1011.28 1011.60 1011.84 1012.04 1012.16 1012.36 1012.60 1012.92 1013.24 1013.40 1013.36 1013.52 1013.84 1014.44 1014.92 1015.00 1015.20 1015.44 1015.64 1015.92 1016.16 1016.04 1016.00 1016.00 1015.92 1015.96 1016.00 1016.12 1016.12 1016.16 1016.20 1016.28 1016.16 1015.84 1015.80 1016.24 1016.44 1016.52 1016.64 1016.80 1017.16 1016.88 1016.48 1016.52 1016.32 1016.60
1006.88 1007.00 1006.80 1006.68 1006.80 1006.84 1007.00 1007.04 1007.04 1007.20 1007.36 1007.44 1007.64 1007.72 1007.84 1007.96 1008.24 1008.36 1008.48 1008.80 1009.12 1009.40 1009.64 1009.76 1009.96 1010.20 1010.48 1010.64 1010.92 1011.28 1011.68 1011.80 1011.84 1011.92 1012.16 1012.52 1012.84 1012.92 1012.92 1013.16 1013.60 1013.96 1014.44 1014.60 1014.60 1014.80 1014.96 1014.76 1014.52 1014.80 1015.44 1015.96 1016.16 1016.12 1016.28 1016.40 1016.32 1015.88 1015.80 1015.80 1016.04 1016.00 1015.92 1015.92 1016.04 1016.32 1016.48 1016.92 1017.04 1016.84 1016.76 1016.60 1016.56 1016.64
1006.24 1006.36 1006.20 1006.32 1006.48 1006.44 1006.52 1006.64 1006.64 1006.80 1007.00 1007.24 1007.40 1007.40 1007.32 1007.28 1007.28 1007.44 1008.00 1008.52 1008.80 1008.96 1009.16 1009.40 1009.56 1009.84 1010.04 1010.08 1010.24 1010.64 1011.04 1011.36 1011.52 1011.64 1011.84 1012.12 1012.40 1012.48 1012.68 1012.92 1013.08 1013.28 1013.60 1013.84 1014.00 1013.84 1013.64 1013.92 1014.48 1015.00 1015.48 1015.92 1016.16 1016.40 1016.44 1016.20 1016.04 1015.76 1015.56 1015.64 1015.80 1015.96 1015.96 1016.00 1016.08 1016.20 1016.28 1016.52 1016.76 1016.88 1016.88 1017.00 1017.36 1016.64
1005.72 1005.76 1005.88 1005.92 1006.00 1006.04 1006.12 1006.16 1006.20 1006.36 1006.64 1006.88 1007.04 1006.88 1006.80 1006.60 1006.84 1007.56 1007.84 1007.96 1008.08 1008.36 1008.60 1008.80 1008.92 1009.16 1009.32 1009.44 1009.52 1009.88 1010.32 1010.64 1010.92 1011.16 1011.40 1011.48 1011.64 1011.92 1012.16 1012.32 1012.52 1012.92 1013.20 1013.28 1013.28 1013.36 1013.68 1014.04 1014.36 1014.80 1015.16 1015.44 1015.60 1015.76 1015.92 1015.68 1015.68 1015.64 1015.60 1015.52 1015.52 1015.64 1015.80 1016.04 1016.20 1016.36 1016.48 1016.48 1016.40 1016.28 1016.16 1016.12 1016.36 1016.24
1005.04 1005.12 1005.16 1005.24 1005.52 1005.64 1005.72 1005.76 1005.92 1006.08 1006.32 1006.56 1006.52 1006.36 1006.00 1006.16 1006.88 1006.88 1006.88 1007.20 1007.56 1007.88 1008.04 1008.28 1008.48 1008.68 1008.92 1008.96 1009.08 1009.36 1009.60 1009.84 1010.16 1010.52 1010.76 1010.96 1011.00 1011.16 1011.48 1011.88 1012.24 1012.64 1012.96 1013.12 1013.24 1013.52 1013.76 1013.84 1014.00 1014.24 1014.84 1015.08 1015.08 1015.48 1015.48 1015.48 1015.52 1015.40 1015.36 1015.28 1015.36 1015.44 1015.52 1015.84 1016.16 1016.40 1016.44 1016.36 1016.28 1016.20 1016.16 1016.08 1015.88 1015.88
1004.56 1004.60 1004.68 1004.84 1005.12 1005.24 1005.36 1005.44 1005.64 1005.88 1006.24 1006.36 1006.20 1005.88 1005.48 1005.64 1006.04 1006.40 1006.76 1006.88 1007.04 1007.24 1007.56 1007.84 1008.12 1008.32 1008.48 1008.68 1008.96 1009.20 1009.20 1009.32 1009.60 1009.88 1010.12 1010.44 1010.64 1010.84 1011.16 1011.60 1012.08 1012.36 1012.52 1012.64 1013.08 1013.52 1013.64 1013.72 1014.00 1014.20 1014.36 1014.40 1014.64 1014.88 1014.88 1015.00 1015.12 1015.16 1015.32 1015.44 1015.40 1015.40 1015.48 1015.72 1015.88 1015.88 1015.84 1015.60 1015.60 1015.88 1015.92 1015.96 1016.04 1016.08
Wind_Speed
2 2 2 3 2 2 1 1 1 1 1 1 2 3 3 2 2 4 5 5 3 3 1 2 3 1 2 4 3 5 4 5 6 4 3 4 4 7 10 11 11 12 12 11 11 10 10 10 10 9 9 9 9 9 9 9 9 10 11 11 11 12 11 11 11 11 11 12 12 14 15 18 19 19
2 1 1 1 2 1 1 2 1 1 1 1 2 2 2 2 3 2 3 6 2 3 2 2 3 4 6 5 6 4 5 6 7 4 4 4 4 9 11 10 10 10 10 9 8 8 8 8 8 8 7 7 7 8 9 9 10 10 9 9 10 10 10 10 10 10 11 11 12 13 14 16 17 17
2 3 3 1 2 2 2 2 1 1 0 1 1 1 2 2 2 2 2 4 3 2 4 3 2 3 6 5 5 4 3 5 6 5 5 5 8 10 7 9 9 8 8 10 11 10 10 9 9 8 9 10 10 10 10 9 9 9 10 11 11 10 10 10 9 10 11 12 13 13 14 15 15 15
2 2 4 4 3 2 2 2 2 2 1 1 1 1 1 1 1 2 2 3 7 2 3 5 6 3 4 6 5 5 4 4 5 5 5 5 6 5 5 7 10 11 12 11 11 11 11 9 10 10 11 11 11 10 10 10 10 10 9 10 9 9 10 10 11 11 11 12 13 13 13 14 13 14
2 2 3 4 3 2 3 2 2 1 1 0 1 1 1 2 2 3 3 4 7 4 2 2 4 4 4 4 1 5 5 6 6 6 5 5 4 5 4 5 8 11 12 11 10 10 10 10 11 11 12 12 11 10 10 10 10 10 9 9 11 12 12 12 12 13 13 13 13 14 14 14 14 13
2 3 4 4 3 1 3 3 3 2 1 1 1 1 2 2 3 3 2 3 2 9 4 4 2 3 1 5 1 4 7 7 5 6 6 5 4 4 4 4 5 10 11 11 10 11 10 11 12 12 12 11 10 10 10 9 10 10 10 12 13 12 12 12 13 13 14 14 14 15 15 15 15 14
4 4 4 5 3 1 3 3 3 2 2 1 2 3 2 3 3 3 4 2 4 5 7 1 4 3 2 3 6 5 4 4 3 5 6 6 6 4 4 4 4 7 10 9 11 11 12 13 13 12 12 12 11 11 10 11 11 12 12 12 12 11 12 12 13 13 14 14 15 15 15 15 15 15
5 6 5 5 3 3 4 4 3 3 2 2 2 3 3 3 3 2 3 4 4 2 6 4 3 3 4 4 3 4 4 3 4 4 5 5 5 5 4 4 5 6 8 7 12 13 13 13 13 13 12 12 11 11 11 11 11 11 11 11 11 12 12 12 12 13 12 13 14 15 15 16 15 14
6 6 7 6 4 4 5 5 4 4 5 3 3 4 3 3 3 2 3 3 4 4 5 6 2 1 3 3 4 2 4 4 4 4 4 4 5 4 4 4 4 5 5 6 13 13 12 12 12 12 11 11 11 11 11 10 10 10 10 11 11 12 12 12 12 13 14 14 14 14 15 16 16 14
6 7 8 7 5 6 6 6 5 4 5 4 4 5 4 3 3 3 3 3 3 4 5 5 6 2 3 3 3 2 1 5 6 5 3 3 3 3 6 5 4 3 3 4 5 9 9 11 11 11 11 10 10 10 9 9 9 10 10 11 11 11 12 12 12 13 14 14 15 14 14 15 15 16
7 7 7 7 7 7 7 7 7 5 5 4 5 6 5 4 4 4 4 3 3 4 4 4 4 5 2 3 5 2 1 4 3 4 4 5 2 3 4 5 4 3 3 3 8 9 9 9 8 8 9 8 8 8 9 9 9 9 10 10 11 11 12 12 12 13 13 14 14 15 14 14 14 15
7 8 8 8 8 8 7 8 7 6 6 5 6 5 4 4 4 5 4 3 3 4 3 4 5 3 4 3 3 3 3 3 1 1 1 5 6 5 4 3 4 2 2 3 4 8 9 8 8 9 8 8 7 7 6 8 8 9 9 10 10 11 11 12 12 12 13 13 14 15 15 14 14 13
7 8 8 8 8 8 10 11 11 9 8 6 6 6 5 5 5 5 4 4 3 4 4 5 4 4 5 4 4 4 3 3 4 2 1 3 4 3 4 3 1 1 2 2 2 3 3 4 3 3 3 4 4 5 5 6 8 9 9 10 10 11 11 11 12 12 13 14 14 15 15 15 14 13
8 8 8 8 12 13 14 14 14 14 13 12 9 7 6 6 5 5 5 4 4 4 5 5 5 5 6 5 3 3 4 3 2 3 2 3 4 4 4 2 1 1 2 2 2 2 2 3 3 2 3 2 3 3 4 5 6 8 9 10 10 10 11 11 12 12 13 13 13 14 15 14 13 13
8 7 8 7 10 12 13 13 15 14 15 14 15 14 11 8 7 6 6 6 5 4 5 5 4 5 7 7 4 5 5 3 3 3 1 2 2 3 4 7 3 3 1 2 1 1 2 2 2 2 2 2 2 3 3 4 6 8 9 10 10 10 11 11 12 12 12 13 13 14 14 14 13 13
7 7 6 7 6 7 9 8 8 11 14 15 15 15 14 13 13 12 9 7 5 5 5 6 6 5 6 7 4 5 3 4 3 3 2 2 2 2 3 2 4 2 2 4 3 1 1 2 2 2 2 1 2 3 2 3 5 7 9 10 11 11 10 11 11 11 12 13 14 14 15 15 14 12
9 7 6 6 6 7 14 11 8 7 8 11 15 14 14 14 15 14 14 12 10 6 6 7 7 7 6 6 7 5 4 3 3 2 2 2 3 3 4 5 4 4 2 3 3 2 1 1 2 2 2 2 1 1 1 3 5 6 8 9 10 10 10 10 10 11 12 13 14 15 15 14 12 12
9 10 8 8 7 7 8 8 8 8 8 7 6 7 7 7 10 13 15 16 16 12 8 7 8 9 6 8 9 7 4 4 5 4 4 3 3 4 6 5 5 5 1 3 2 3 2 1 2 2 2 2 2 1 1 2 4 6 7 8 9 10 10 10 10 11 12 13 14 14 15 15 13 12
11 11 9 10 9 10 8 7 9 9 8 7 6 7 7 7 7 7 8 9 8 8 8 10 10 10 7 7 8 7 5 7 6 5 5 4 4 3 3 5 6 5 3 4 3 4 2 2 2 2 3 2 2 1 3 2 4 5 6 7 8 9 10 10 10 11 11 12 13 14 15 15 14 12
11 11 10 10 10 11 10 12 15 13 8 7 7 8 7 7 6 7 10 12 11 10 9 8 9 9 10 10 9 8 6 4 3 3 2 1 2 3 5 7 2 4 3 4 5 3 2 2 1 2 3 3 3 3 2 3 3 3 5 6 8 8 9 9 10 10 11 12 12 14 15 15 14 12
11 11 11 11 8 10 11 13 15 15 12 7 8 7 7 7 6 8 7 12 15 15 14 14 15 15 15 14 14 13 10 6 3 2 3 5 4 5 6 6 4 4 3 4 5 2 3 2 2 2 4 5 3 3 2 2 3 1 3 5 7 8 8 8 9 10 11 12 12 13 15 15 14 11
11 12 17 14 12 12 13 15 15 14 12 8 8 8 8 8 8 9 8 5 7 13 15 15 16 15 14 14 14 13 12 9 7 6 7 6 3 5 5 8 4 2 2 4 6 4 3 3 2 2 1 1 3 3 2 3 2 1 0 3 6 8 8 8 8 9 10 11 12 13 14 15 13 7
10 11 13 17 16 14 15 16 14 15 12 9 9 8 8 8 9 10 8 6 6 5 5 6 6 7 10 10 8 9 12 11 11 9 9 5 5 6 6 6 6 7 6 5 9 5 3 3 3 2 1 2 1 2 2 1 1 1 1 2 3 7 9 8 6 8 9 10 12 12 13 15 12 7
10 10 10 12 18 19 18 17 16 15 16 11 8 8 8 9 11 9 8 8 7 8 7 7 7 8 6 6 6 6 5 7 10 10 9 8 7 6 6 6 8 8 5 3 9 6 1 2 3 2 2 2 2 1 1 1 1 1 1 1 2 5 6 7 5 6 8 8 11 11 12 13 14 8
9 9 9 9 15 19 19 18 18 15 16 16 10 9 10 12 14 12 6 8 12 9 8 8 6 6 5 6 5 5 5 5 6 7 8 8 8 7 7 6 8 9 6 4 8 5 4 3 3 3 1 1 1 1 1 1 1 0 2 2 2 4 4 4 5 6 6 6 9 11 11 12 14 10
9 11 10 10 13 17 19 19 19 17 16 18 12 13 16 18 17 13 11 7 5 6 6 5 5 5 5 5 5 6 6 6 6 7 7 8 8 8 8 7 7 6 6 6 13 7 5 3 5 4 2 2 1 1 2 1 1 1 1 1 1 2 3 4 4 6 7 6 6 9 7 9 10 11
12 11 11 11 14 17 19 19 19 18 19 13 13 19 17 18 18 14 8 7 6 6 6 6 6 6 6 6 6 6 6 6 6 6 7 7 7 7 7 7 7 6 1 5 8 5 6 3 4 7 4 2 1 1 1 2 1 1 0 1 0 1 3 4 5 5 6 7 7 10 5 4 6 8
10 11 11 11 15 17 19 19 19 18 16 14 19 19 19 18 15 6 6 6 8 8 6 6 7 7 6 6 6 6 6 7 7 8 6 6 7 7 7 7 7 6 3 5 7 5 5 3 3 3 4 5 3 3 2 1 1 0 2 2 1 0 2 3 4 4 4 4 5 6 7 7 8 8
12 13 16 16 17 17 18 19 18 13 14 19 17 18 19 16 5 6 7 8 7 8 9 8 8 8 7 7 7 6 7 6 3 3 3 3 3 3 1 1 2 2 2 3 5 4 4 5 4 4 2 1 3 0 0 0 1 1 1 3 1 0 1 2 3 4 4 4 5 5 6 7 7 8
19 17 17 18 18 17 15 10 8 8 11 17 20 18 14 7 8 8 9 8 8 9 9 8 9 8 7 7 7 7 4 5 6 5 4 4 3 4 4 4 3 2 2 2 2 2 2 2 4 5 3 1 1 1 1 1 2 2 1 1 4 3 2 2 3 3 4 5 5 5 4 5 6 7
13 13 11 9 11 9 14 15 13 12 11 9 7 8 8 9 9 9 9 9 10 9 9 8 7 7 6 4 4 5 6 8 7 6 5 5 5 5 4 5 4 3 3 4 3 3 3 3 4 6 5 2 1 1 1 1 1 2 1 1 2 3 4 3 2 3 4 4 3 3 3 5 6 6
10 8 6 7 4 5 4 6 5 7 6 7 7 6 7 8 9 10 11 10 8 8 6 5 4 5 4 6 7 6 8 8 7 8 8 7 5 5 5 4 3 3 3 2 2 5 5 3 3 2 1 4 5 3 2 2 3 2 2 1 2 3 2 3 4 3 3 3 3 4 3 5 6 6
7 7 6 5 6 6 8 6 7 6 6 6 7 8 7 7 8 7 7 9 10 8 7 9 9 8 7 8 7 8 10 9 8 7 7 4 4 5 5 6 5 5 5 4 3 2 2 3 3 3 1 1 1 4 5 3 4 4 3 2 1 2 2 1 1 3 3 2 3 3 2 2 4 5
9 8 8 8 8 8 7 8 7 7 7 6 7 8 9 8 8 8 8 9 8 7 10 8 9 9 7 9 9 11 10 7 6 6 7 6 6 6 7 6 6 6 6 6 5 4 2 2 3 3 1 2 3 4 4 4 3 3 3 2 2 2 2 1 1 1 2 1 3 4 4 2 2 4
9 8 9 9 9 9 8 8 9 9 8 8 8 7 8 8 9 10 10 9 7 8 8 9 9 7 7 9 9 10 9 8 7 6 7 6 8 8 9 9 8 8 9 9 8 6 4 3 4 3 1 1 2 3 6 6 3 3 1 2 3 3 2 1 0 0 1 1 0 2 4 2 1 1
10 9 9 9 10 9 9 9 10 8 7 7 8 10 10 10 10 11 12 12 9 9 9 9 10 10 10 10 9 8 8 8 8 8 8 8 9 8 8 10 10 8 7 7 8 6 5 5 6 6 5 3 2 2 3 8 7 3 3 3 2 3 2 2 1 1 0 0 1 1 2 4 4 3
9 8 9 9 9 9 9 9 9 9 10 10 11 10 11 12 11 11 13 10 8 9 9 9 9 9 9 7 7 7 7 8 8 6 6 5 5 6 7 7 7 8 8 7 6 5 5 5 5 6 6 5 5 6 4 1 5 6 5 5 2 3 3 2 1 1 1 1 1 1 2 2 3 3
12 8 9 10 10 10 11 11 11 10 10 11 11 11 11 12 10 9 7 7 9 8 8 9 9 7 8 7 8 6 6 7 7 7 7 7 7 6 8 11 7 6 8 6 6 7 6 6 6 6 5 6 5 5 4 1 1 5 12 7 5 3 3 2 2 2 2 2 2 2 2 3 3 2
10 11 12 12 12 11 11 12 11 12 12 11 11 11 12 10 8 7 6 8 9 8 9 9 9 8 8 8 8 8 7 7 8 7 8 9 10 11 12 10 7 7 6 7 6 5 5 4 4 5 6 5 8 6 5 3 4 0 5 13 7 3 4 4 3 1 2 2 2 2 4 4 5 4
13 11 11 11 11 11 11 10 10 11 11 11 11 11 10 10 8 9 8 8 8 9 9 9 8 7 7 7 7 7 9 10 10 8 8 9 11 13 12 9 9 8 8 8 7 6 7 7 8 9 9 7 1 2 2 2 1 1 2 5 11 8 4 4 4 2 2 2 0 1 2 1 0 1
11 11 11 10 10 10 9 9 8 9 10 10 10 9 10 10 9 10 10 9 9 8 8 8 7 8 8 7 7 8 8 8 8 8 8 9 12 13 14 11 7 7 8 8 9 8 9 11 12 8 4 3 2 2 1 2 6 4 4 2 5 9 5 4 4 4 3 2 2 1 2 2 2 3
12 11 9 9 9 8 8 9 9 10 9 8 9 9 11 11 12 11 9 8 8 8 8 8 8 8 9 9 8 9 9 9 9 8 9 10 11 12 13 10 10 8 9 10 10 9 7 4 6 8 6 5 4 5 7 6 7 6 4 1 1 4 8 7 4 3 3 4 3 3 2 1 1 2
10 10 11 10 10 10 10 10 10 9 9 8 9 10 11 12 9 7 7 9 9 9 9 8 8 8 8 8 8 9 9 9 9 9 10 11 11 12 11 10 9 8 9 7 5 4 5 6 7 7 7 7 6 6 8 7 6 5 5 3 2 1 2 4 6 5 6 7 8 6 3 2 1 3
10 11 11 10 10 10 11 10 9 8 8 8 9 10 13 11 8 11 10 9 8 8 8 8 8 8 8 8 8 8 9 9 10 11 11 10 11 10 9 9 9 8 7 5 5 5 4 5 6 7 7 7 7 6 8 6 7 6 6 3 1 2 3 3 3 4 6 9 12 12 10 8 8 5
8 8 7 7 9 9 9 9 8 7 6 7 9 12 13 12 10 7 6 7 7 8 8 8 8 8 8 7 8 9 9 8 9 9 9 8 8 9 8 7 8 8 7 7 6 5 4 4 3 3 4 4 5 6 6 5 5 4 3 4 5 3 3 3 4 5 6 6 9 13 11 10 9 9
Wind_Direction
230 229 216 235 261 278 299 311 317 247 180 179 183 188 188 157 354 326 326 315 311 311 32 350 304 29 330 326 331 326 323 324 322 314 296 296 289 300 301 303 304 302 300 300 302 304 304 303 304 313 324 320 320 323 325 331 337 336 343 340 340 340 339 336 329 320 311 303 294 283 275 271 268 263
230 235 230 223 265 259 278 321 317 320 228 202 190 201 217 162 257 205 299 301 222 284 311 193 295 330 338 341 329 332 311 329 330 318 311 314 310 308 304 302 299 301 300 301 310 317 318 324 342 354 353 352 354 359 1 3 4 8 359 1 4 358 358 349 337 324 320 315 306 299 291 284 278 271
235 265 275 244 258 270 299 317 325 336 163 270 174 180 161 217 160 162 173 315 283 156 297 294 210 294 311 324 310 308 310 327 328 313 314 314 317 309 306 303 300 298 333 355 356 351 356 12 22 21 24 23 25 28 30 29 28 23 20 22 16 13 10 360 351 342 334 326 320 316 310 304 297 289
223 238 263 275 271 281 302 301 330 324 288 190 231 193 196 169 157 142 179 234 282 204 254 285 295 294 294 302 302 312 315 318 318 315 312 314 312 306 315 324 339 353 356 358 359 2 22 33 32 35 39 45 51 52 50 47 40 32 27 25 21 20 15 6 1 356 348 342 335 328 322 315 308 303
210 223 246 261 262 246 273 266 285 290 297 195 200 199 177 224 170 187 191 261 291 289 188 269 289 314 308 299 307 317 322 328 333 332 317 319 326 322 333 337 346 351 353 357 4 30 40 40 49 59 63 66 65 61 55 47 39 32 25 21 21 19 14 7 360 356 355 353 348 342 334 328 321 316
209 217 243 255 257 224 250 269 268 269 268 246 261 207 196 215 224 191 209 237 215 299 308 296 253 280 180 309 237 332 326 324 331 327 322 322 337 334 340 342 340 346 346 355 24 47 50 64 72 72 73 72 65 57 51 43 35 27 20 20 16 10 5 2 359 357 357 356 354 349 343 338 332 329
205 224 230 250 242 217 259 250 252 240 255 221 229 242 201 227 224 195 205 212 265 280 296 283 307 290 307 295 311 317 294 287 298 309 327 330 327 338 341 339 334 339 343 358 47 58 70 77 77 77 74 69 63 58 50 44 35 29 24 17 13 7 3 1 359 0 360 358 356 353 349 345 341 340
203 215 229 236 218 213 241 248 246 233 225 234 234 243 230 215 234 209 184 210 227 257 292 288 271 298 315 289 273 280 283 306 324 327 314 318 322 327 338 336 331 333 335 21 63 71 80 81 79 77 73 69 64 58 50 41 33 26 19 15 11 7 4 2 0 2 0 360 358 356 355 353 349 343
204 212 225 232 202 197 222 241 242 232 237 224 220 239 235 227 229 204 205 211 200 235 268 286 246 256 270 255 281 282 325 326 322 323 330 325 313 320 325 330 324 308 330 58 73 79 82 81 81 79 76 71 64 56 48 39 30 22 17 14 10 7 4 3 2 3 4 2 360 357 357 358 355 350
203 214 221 222 205 206 216 233 236 229 234 220 225 232 232 225 217 230 228 206 216 222 249 266 293 227 291 300 271 284 342 322 320 319 324 310 312 324 337 342 339 346 14 28 82 98 84 79 80 81 78 73 65 55 45 36 26 19 14 9 7 5 3 1 3 5 3 1 359 358 357 358 359 358
208 214 219 216 208 212 215 225 230 227 225 221 233 226 233 221 220 236 237 219 224 227 252 266 250 279 253 244 298 315 298 281 273 308 325 339 343 324 340 329 336 346 12 79 81 83 89 90 86 81 78 74 66 54 43 32 24 15 10 2 3 4 1 360 3 3 2 1 359 358 357 357 358 1
211 212 215 217 211 214 216 219 227 211 227 210 233 223 212 214 219 238 239 238 233 242 243 247 279 267 283 279 248 279 313 302 302 117 346 318 325 335 326 302 299 324 329 41 88 116 123 115 106 96 80 63 49 34 30 28 20 12 3 1 2 2 359 359 0 1 2 2 360 359 357 356 358 359
213 215 215 215 215 212 219 218 224 223 215 210 229 230 192 211 216 229 235 238 244 249 249 268 252 270 276 269 296 311 295 279 301 318 52 287 302 310 310 307 222 269 339 19 66 74 81 98 76 70 71 56 48 43 19 20 20 9 3 1 0 359 358 356 358 1 2 2 1 359 357 355 357 358
217 220 218 221 219 216 220 220 223 227 224 222 224 235 189 207 208 220 232 235 234 245 257 258 265 276 276 278 259 266 252 268 268 287 272 298 316 324 309 257 191 122 343 14 39 68 65 106 102 80 79 69 32 36 27 25 10 5 2 359 358 358 358 359 360 3 2 0 1 360 356 354 356 357
221 220 221 225 228 226 224 226 221 222 224 223 228 234 230 212 204 218 224 237 226 228 241 253 250 248 270 274 251 247 271 245 246 257 253 271 322 346 346 327 315 147 337 24 320 112 56 137 122 95 90 85 54 41 39 353 6 12 5 359 355 355 358 1 3 3 3 360 2 2 357 355 356 356
226 222 219 222 219 219 222 220 222 222 223 222 224 229 233 233 228 223 223 237 235 217 233 241 240 248 251 270 262 259 241 249 214 212 199 217 267 289 275 257 286 256 39 346 322 250 105 128 115 123 117 108 78 52 6 352 5 15 10 360 352 351 355 360 3 3 6 4 5 2 357 356 357 356
228 227 221 224 217 223 224 223 221 219 225 221 220 223 228 233 232 234 236 233 235 235 227 235 250 236 247 257 257 216 223 162 227 176 216 207 202 214 242 250 268 280 80 322 291 253 158 168 155 146 139 146 123 123 77 20 10 7 8 360 351 348 351 357 1 4 9 9 6 3 358 354 354 356
223 223 220 220 226 218 218 221 216 213 219 215 206 208 211 218 229 229 228 232 234 232 232 231 240 247 204 240 254 253 178 207 240 229 245 211 223 216 232 241 244 267 167 255 272 264 188 165 164 174 160 172 169 150 91 45 35 10 352 354 352 347 348 355 1 4 9 12 7 4 359 354 352 353
223 223 218 221 226 230 219 214 212 211 214 209 210 215 218 218 219 214 217 216 213 210 219 227 234 246 237 237 246 255 215 219 225 222 239 236 239 244 260 257 235 253 204 194 175 249 158 155 188 184 168 173 190 172 177 88 48 20 349 343 350 348 349 356 3 5 9 13 9 6 1 356 351 350
224 224 222 223 227 232 229 224 213 214 209 202 214 221 227 229 226 227 226 223 219 215 209 212 225 234 240 237 241 240 235 210 196 202 210 195 197 248 273 281 250 250 176 183 195 230 201 143 204 180 176 184 206 191 174 122 69 21 351 340 346 350 351 357 2 5 9 14 13 9 4 358 348 344
224 223 222 219 223 227 231 227 213 213 207 205 212 221 230 232 236 242 233 221 222 225 225 226 230 238 244 248 250 251 246 228 182 171 223 239 214 244 269 273 258 259 181 184 201 200 251 154 183 208 193 204 213 213 176 145 100 37 351 338 341 348 355 0 4 6 8 12 16 13 7 1 347 338
226 224 219 215 221 226 232 227 215 205 196 209 212 219 229 237 241 248 242 234 213 217 224 229 234 240 248 252 256 256 247 214 187 196 225 227 182 222 232 264 245 235 196 200 166 172 221 140 167 217 201 219 224 222 205 162 148 152 360 332 334 346 353 2 7 8 8 11 17 18 10 4 348 4
227 229 226 220 220 223 230 228 216 201 189 204 208 213 220 231 240 242 241 229 223 206 211 230 225 242 239 239 236 243 240 201 199 209 223 220 204 231 228 232 260 268 252 184 159 191 196 166 166 172 192 248 216 228 245 193 164 76 25 1 1 350 342 350 9 11 12 13 16 20 12 6 357 12
224 227 231 223 221 223 226 226 219 204 193 202 210 205 213 223 237 241 235 228 220 234 221 232 217 228 225 218 221 225 218 200 202 209 214 216 209 214 229 222 230 244 245 144 169 182 137 170 158 166 226 251 251 174 256 241 145 86 35 20 18 343 332 342 9 31 23 19 21 18 14 8 4 11
220 222 223 226 216 216 223 225 223 208 200 206 211 209 218 223 233 241 237 233 224 228 229 229 227 224 223 222 218 216 213 210 204 204 209 210 204 206 214 219 230 238 234 170 178 165 181 172 170 150 148 198 260 290 223 312 315 250 33 24 359 355 348 6 360 7 21 37 40 19 18 11 5 6
225 225 223 225 217 209 216 221 224 213 204 208 212 222 222 230 233 239 241 243 229 228 233 232 227 225 225 225 219 215 214 210 203 205 204 206 208 208 207 200 204 221 232 160 168 176 134 192 180 158 155 177 200 197 307 272 207 172 80 30 349 345 348 3 10 12 6 5 20 18 5 6 9 2
224 223 224 225 214 206 211 216 221 214 209 205 217 225 227 229 233 235 245 247 242 238 235 232 238 235 228 228 226 219 220 218 206 210 209 202 202 208 216 220 222 231 125 139 180 166 175 168 159 170 168 161 155 130 210 248 157 139 299 53 21 345 349 357 13 21 14 6 3 3 14 45 23 359
219 221 220 221 213 207 210 214 217 215 203 208 217 224 229 232 234 230 237 240 238 243 240 233 235 238 229 226 229 224 218 220 209 211 206 204 201 203 211 215 225 236 184 163 175 180 168 133 158 190 141 158 168 196 227 195 240 258 321 333 169 316 12 355 9 14 18 15 12 6 4 3 10 9
221 219 216 213 210 211 211 212 215 215 208 214 220 222 226 228 216 216 222 230 230 236 236 232 234 241 231 220 225 221 220 220 187 177 198 195 209 203 187 205 242 215 200 165 170 155 147 151 163 140 113 138 184 302 285 302 347 345 24 347 2 63 24 352 13 10 6 10 17 16 16 1 358 1
220 217 212 210 210 212 213 208 199 202 209 213 218 222 223 213 221 219 223 226 225 229 230 228 231 232 228 227 227 229 208 198 208 191 183 170 164 150 141 125 96 64 64 85 106 109 90 96 121 135 135 141 206 187 207 277 303 318 4 345 308 266 171 23 16 11 5 7 6 7 12 14 7 360
227 226 220 214 209 210 205 206 212 215 217 203 205 217 212 216 219 221 218 216 221 224 228 229 229 234 234 236 226 217 215 227 225 196 183 183 176 151 145 141 127 106 65 60 59 67 84 98 122 142 152 154 171 195 133 188 285 302 320 320 334 344 334 352 9 20 6 359 360 360 359 12 14 11
228 222 206 204 181 190 181 208 218 219 208 204 195 199 200 212 215 217 222 228 232 237 233 244 245 246 222 226 222 219 224 224 219 206 203 193 155 147 136 124 133 127 116 105 72 44 62 85 120 130 134 172 181 165 145 182 220 233 267 252 268 281 281 327 348 10 13 341 356 10 8 11 11 6
215 216 205 198 192 192 199 192 207 207 205 207 209 209 206 211 214 216 203 217 219 209 209 223 220 223 215 222 213 221 225 219 212 190 192 172 133 143 156 170 147 158 170 182 166 118 83 92 85 101 129 191 190 167 164 194 211 190 203 210 222 274 287 292 347 357 343 340 360 344 358 28 13 13
202 201 208 204 202 200 200 205 205 210 202 205 207 217 219 215 216 215 214 216 217 205 216 216 219 224 217 226 223 221 218 214 205 186 179 170 153 152 169 167 172 185 178 172 178 183 148 111 109 104 142 183 196 201 197 206 213 177 189 185 192 234 223 218 162 103 53 34 336 334 346 7 32 16
205 210 206 208 210 212 211 211 216 220 214 215 220 219 214 216 220 225 226 225 214 213 211 216 224 223 220 229 221 222 214 209 195 182 191 169 167 174 171 175 178 179 183 176 179 176 174 157 144 149 173 292 274 221 209 215 216 225 176 208 194 212 226 175 194 121 112 137 246 333 315 282 9 79
205 210 205 205 210 205 209 210 220 217 207 212 220 228 229 229 224 223 228 223 211 216 216 220 224 227 228 232 231 222 216 208 205 193 181 178 174 177 175 187 176 173 181 192 187 164 166 168 169 171 183 185 205 255 238 211 220 193 191 222 174 186 193 174 172 188 196 155 139 6 338 327 329 358
208 209 207 209 208 203 206 207 210 213 215 221 225 226 229 233 227 221 228 219 217 220 217 219 224 222 224 225 224 216 206 204 209 194 176 154 155 165 171 191 184 176 184 191 171 164 168 177 183 178 179 182 205 219 230 104 248 240 198 216 212 195 179 162 178 221 165 174 192 201 253 279 289 311
217 199 205 209 213 210 210 213 210 209 211 216 222 226 231 235 235 231 220 207 218 219 215 216 220 210 217 209 208 208 210 208 207 194 173 149 144 149 184 209 187 176 186 173 166 185 182 176 177 181 175 197 209 218 236 233 214 215 207 201 215 187 160 171 206 218 192 180 220 204 195 235 252 263
217 216 210 212 210 211 210 211 205 208 211 212 216 222 230 233 228 227 210 210 208 211 214 215 217 204 197 192 191 187 195 205 212 200 175 165 165 169 198 205 180 180 171 186 179 176 180 182 157 175 199 194 213 216 203 187 230 165 198 211 213 182 200 186 223 203 221 222 199 213 224 233 254 238
219 218 217 211 214 212 217 209 210 211 213 213 216 220 223 227 216 217 213 207 205 207 209 211 204 189 190 182 181 188 202 211 212 200 186 172 171 175 198 197 193 171 180 186 180 181 179 185 179 198 201 206 232 86 142 186 299 269 256 219 220 214 187 165 200 197 227 214 201 281 291 282 306 120
218 219 224 218 218 216 213 213 210 212 217 217 217 219 219 222 216 216 210 204 201 201 209 210 202 199 197 183 183 184 202 210 211 205 187 171 173 183 189 182 175 175 183 192 195 188 191 196 208 184 101 109 141 120 47 250 251 245 237 199 201 218 201 186 202 190 207 140 186 266 287 311 317 332
207 215 219 213 217 214 211 215 213 215 217 210 216 219 224 221 223 209 202 196 198 205 206 205 199 197 202 201 190 186 199 201 202 195 183 178 180 186 181 177 186 179 184 193 196 202 187 143 137 144 160 152 157 189 228 229 243 249 251 210 224 187 201 206 223 246 225 170 176 215 226 188 180 261
207 215 219 215 217 220 216 219 216 212 209 204 214 222 228 228 215 191 201 198 196 198 205 200 194 196 201 200 193 186 195 195 195 189 186 185 180 181 184 189 182 177 192 195 195 166 121 146 153 150 164 182 196 199 229 228 232 248 256 238 205 166 181 196 217 228 238 237 234 244 243 244 162 253
207 210 217 213 211 215 220 219 217 207 202 197 210 221 230 227 206 207 205 199 191 198 197 194 195 196 202 201 193 191 198 193 185 188 188 184 184 182 177 173 174 180 184 187 159 141 139 155 161 162 163 196 191 198 227 231 237 228 237 251 187 180 195 171 182 205 230 230 230 236 244 246 255 312
218 218 217 212 215 218 219 219 215 203 179 182 202 220 230 228 220 209 191 184 189 189 186 188 190 196 202 200 197 203 200 181 178 177 173 171 172 169 171 161 174 181 185 183 159 152 160 145 144 163 198 196 187 206 220 223 240 254 240 224 234 209 204 175 202 216 226 246 206 207 224 223 236 257